Hourly Data Report for October 14, 2014

All times are specified in Local Standard Time (LST). Add 1 hour to adjust for Daylight Saving Time where and when it is observed.

PANGNIRTUNG
NUNAVUT

66°08'36.300" N
65°42'40.500" W
22.60 m
2403049
71826
WXP

Download Data

Hourly Data (October 2014)
Hourly Data Report for October 14, 2014
Temp Definition
°C
Dew Point Temp Definition
°C
Rel Hum Definition
%
Wind Dir Definition
10's deg

Wind Spd Definition
km/h
Visibility Definition
km
Stn Press Definition
kPa
Hmdx Definition


Wind Chill Definition


Weather Definition


TIME
00:00 1.6 -2.0 77 13 19   100.39     LegendNANA
01:00 1.8 -2.0 76 14 13   100.38     LegendNANA
02:00 1.5 -1.6 80 12 18   100.38     LegendNANA
03:00 1.8 -1.2 81 11 22   100.38     LegendNANA
04:00 1.9 -1.3 79 8 23   100.40     LegendNANA
05:00 1.9 -1.8 77 9 14   100.40     LegendNANA
06:00 1.6 -2.2 76 6 5   100.42     LegendNANA
07:00 1.0 -2.3 79 7 10   100.40     LegendNANA
08:00 1.1 -2.4 78 4 11   100.36     LegendNANA
09:00 1.2 -2.7 76 8 10   100.31     LegendNANA
10:00 2.4 -3.3 66 30 3   100.26     LegendNANA
11:00 2.0 -3.4 67 24 4   100.22     LegendNANA
12:00 1.6 -3.4 69 17 4   100.16     LegendNANA
13:00 0.7 -4.0 71 11 8   100.13     LegendNANA
14:00 0.3 -4.4 70 13 9   100.12     LegendNANA
15:00 0.2 -4.8 69 13 9   100.09     LegendNANA
16:00 -0.3 -4.9 71 32 2   100.06   -1 LegendNANA
17:00 -0.8 -5.4 71 16 5   100.05   -2 LegendNANA
18:00 0.4 -4.9 68 11 9   100.00     LegendNANA
19:00 -0.2 -5.5 67 11 6   99.97   -2 LegendNANA
20:00 -0.8 -4.6 76 0 1   99.92   -1 LegendNANA
21:00 -1.3 -5.7 72 7 3   99.89   -2 LegendNANA
22:00 -1.5 -5.0 77 12 2   99.88   -2 LegendNANA
23:00 -1.7 -5.0 78 24 4   99.85   -3 LegendNANA

Notes on Data Quality.

Legend

  • E = Estimated
  • M = Missing
  • NA = Not Available
  • ‡ = Partner data that is not subject to review by the National Climate Archives
Date modified: